Weather in Chambery

France     45°34′17″N   5°55′03″E
В апреле 2022 года жителям России запретили посещать сайт meteo.paraplan.net по решению Генеральной прокуратуры. Аудитория сайта уменьшилась в 10 раз. Владельцы сайта не видят смысла в поддержке погодного сервера в таких условиях. Сайт будет закрыт в октябре.
temp.,
°C
wind,
m/s
gust,
m/s
humid.,
%
clouds,
%
prec.,
mm/h
press.,
hPa
HPBL,
m
3 october, mon
mon323:00+11ene11950 0.0 102511
02:00+9ene11960 0.0 102411
05:00+8ese11974 0.0 102511
08:00+8e11970 0.0 102413
11:00+15n227323 0.0 1023532
14:00+17nnw2265100 0.0 10221076
17:00+17nw226418 0.0 1021833
20:00+11nnw01937 0.0 102110
4 october, tue
tue423:00+9se00960 0.0 102210
02:00+8ese11971 0.0 102210
05:00+8ese11965 0.0 102210
08:00+7ese119333 0.0 102214
11:00+15nw10665 0.0 1021334
14:00+20wnw11525 0.0 1021865
17:00+20nw115533 0.0 1020668
20:00+12se009131 0.0 102211
5 october, wed
wed523:00+11ese11936 0.0 102312
02:00+10e119147 0.0 102413
05:00+10ese118840 0.0 102315
08:00+10ese118410 0.0 102316
11:00+18ssw11545 0.0 1023372
14:00+22w13445 0.0 10221134
17:00+21nw225424 0.0 1022678
20:00+13w009287 0.0 102510
6 october, thu
thu623:00+12ese1193100 0.0 102710
02:00+11ese1193100 0.0 102811
05:00+10e1195100 0.0 102812
08:00+10ese11955 0.0 102911
11:00+17n12680 0.0 1028446
14:00+19nw225815 0.0 10271113
17:00+19nw22593 0.0 1026950
20:00+12wsw11934 0.0 102811
7 october, fri
fri723:00+11ese11950 0.0 102810
02:00+10ese11950 0.0 102810
05:00+10ese11950 0.0 102711
08:00+10ese11940 0.0 102612
11:00+18wnw01664 0.0 1025384
14:00+21nw115422 0.0 10231186
17:00+20nw226147 0.0 1021891
20:00+13wnw009254 0.1 102310